CW4772 Weather Reports


time (UTC)temp
F
wind
direction
speed
knots
gust
knots
rain 1hr
in
rain 24hr
in
rain mn
in
humidity
%
barometer
mb
20260506132204 69 116 6.1 12.2 0.00 0.00 0.00 59 1003.0
20260506131703 70 144 7.8 12.2 0.00 0.00 0.00 58 1003.1
20260506131204 71 157 5.2 10.4 0.00 0.00 0.00 57 1003.1
20260506130204 70 158 3.5 11.3 0.00 0.00 0.00 58 1003.2
20260506125203 68 106 2.6 8.7 0.00 0.00 0.00 60 1003.3
20260506124703 68 115 4.3 12.2 0.00 0.00 0.00 60 1003.4
20260506123204 67 142 6.1 12.2 0.00 0.00 0.00 60 1003.7
20260506122704 68 112 5.2 12.2 0.00 0.00 0.00 60 1003.7
20260506121703 69 127 5.2 11.3 0.00 0.00 0.00 59 1003.7
20260506121203 69 98 3.5 10.4 0.00 0.00 0.00 61 1003.9
20260506120203 69 108 4.3 13.9 0.00 0.00 0.00 58 1004.0
20260506115704 69 145 6.1 13.9 0.00 0.00 0.00 56 1004.0
20260506114204 71 175 5.2 15.6 0.00 0.00 0.00 55 1004.0
20260506112703 68 144 6.1 11.3 0.00 0.00 0.00 58 1004.2
20260506111703 68 205 1.7 5.2 0.00 0.00 0.00 62 1004.2
20260506110203 68 236 2.6 6.1 0.00 0.00 0.00 61 1004.3
20260506105204 68 164 2.6 8.7 0.00 0.00 0.00 61 1004.3
20260506104204 69 191 2.6 7.8 0.00 0.00 0.00 59 1004.4
20260506103204 68 126 1.7 5.2 0.00 0.00 0.00 63 1004.4
20260506102703 68 36 1.7 7.0 0.00 0.00 0.00 59 1004.5
20260506102203 68 193 2.6 7.0 0.00 0.00 0.00 62 1004.7
20260506095704 67 142 3.5 6.1 0.00 0.00 0.00 63 1005.0
20260506095203 68 230 1.7 5.2 0.00 0.00 0.00 62 1005.0
20260506092703 67 211 4.3 7.8 0.00 0.00 0.00 65 1005.3
20260506091204 65 115 3.5 7.8 0.00 0.00 0.00 69 1005.2
20260506085704 65 223 2.6 5.2 0.00 0.00 0.00 70 1005.3
20260506085204 64 260 1.7 7.0 0.00 0.00 0.00 69 1005.3
20260506082203 63 207 2.6 6.1 0.00 0.00 0.00 71 1005.2
20260506081204 62 231 1.7 10.4 0.00 0.00 0.00 73 1005.2
20260506073203 61 211 1.7 6.1 0.00 0.00 0.00 75 1005.3
20260506072203 61 212 2.6 5.2 0.00 0.00 0.00 77 1005.4
20260506071204 60 214 1.7 7.0 0.00 0.00 0.00 77 1005.4
20260506070204 60 221 1.7 7.0 0.00 0.00 0.00 78 1005.5
20260506062203 57 252 1.7 7.8 0.00 0.00 0.00 84 1005.5
20260506061704 57 228 4.3 7.8 0.00 0.00 0.00 84 1005.5
20260506061204 57 239 3.5 7.0 0.00 0.00 0.00 86 1005.5
20260506060704 57 221 2.6 7.0 0.00 0.00 0.00 86 1005.3
20260506060204 56 224 1.7 5.2 0.00 0.00 0.00 88 1005.3
20260506044204 51 161 0.9 1.7 0.00 0.00 0.00 98 1005.2
20260506042203 51 161 0.9 2.6 0.00 0.00 0.00 98 1004.6
20260506041704 51 177 0.9 2.6 0.00 0.00 0.00 97 1004.7
20260506041204 51 230 0.9 1.7 0.00 0.00 0.00 97 1004.9
20260506035204 51 230 0.9 1.7 0.00 0.00 0.00 97 1004.7
20260506034704 51 230 0.9 1.7 0.00 0.00 0.00 97 1004.8
20260506031704 51 230 0.0 1.7 0.00 0.00 0.00 96 1004.4
20260506025704 52 225 0.9 2.6 0.00 0.00 0.00 96 1004.6
20260506024704 52 225 1.7 4.3 0.00 0.00 0.00 96 1004.6
20260506023704 52 221 1.7 4.3 0.00 0.00 0.00 95 1004.7
20260506021704 52 242 0.9 2.6 0.00 0.00 0.00 95 1004.6
20260506014705 52 228 1.7 2.6 0.00 0.00 0.00 95 1004.8
20260506014204 53 218 0.9 4.3 0.00 0.00 0.00 94 1004.8
20260506013705 53 218 1.7 4.3 0.00 0.00 0.00 94 1004.8
20260506012703 53 222 1.7 4.3 0.00 0.00 0.00 94 1004.7
20260506012204 53 238 1.7 4.3 0.00 0.00 0.00 93 1004.6
20260506011704 53 231 1.7 4.3 0.00 0.00 0.00 92 1004.7
20260506010204 54 241 0.9 2.6 0.00 0.00 0.00 91 1004.5
20260506004704 55 264 0.9 2.6 0.00 0.00 0.00 89 1004.4
20260506004204 55 264 0.0 2.6 0.00 0.00 0.00 89 1004.3
20260506003704 55 261 0.9 2.6 0.00 0.00 0.00 88 1004.2
20260506002204 56 284 0.9 5.2 0.00 0.00 0.00 87 1004.0
20260506001204 56 240 1.7 4.3 0.00 0.00 0.00 87 1004.1
20260505235704 56 275 1.7 2.6 0.00 0.00 0.00 87 1003.5
20260505233204 58 284 4.3 8.7 0.00 0.00 0.00 84 1003.8
20260505232204 58 288 5.2 10.4 0.00 0.00 0.00 83 1003.9
20260505230704 59 297 6.1 11.3 0.00 0.00 0.00 80 1004.0
20260505224204 60 294 4.3 12.2 0.00 0.00 0.00 80 1004.2
20260505223204 60 290 7.0 10.4 0.00 0.00 0.00 80 1004.0
20260505222704 60 286 3.5 10.4 0.00 0.00 0.00 80 1004.1
20260505222204 60 286 4.3 8.7 0.00 0.00 0.00 81 1004.1
20260505221205 60 269 2.6 10.4 0.00 0.00 0.00 80 1004.0
20260505220706 60 293 5.2 11.3 0.00 0.00 0.00 80 1004.0
20260505215704 60 290 5.2 11.3 0.00 0.00 0.00 79 1003.5
20260505212204 60 203 1.7 8.7 0.00 0.00 0.00 72 1002.7
20260505210704 61 164 4.3 8.7 0.00 0.00 0.00 70 1002.5
20260505204705 61 150 4.3 10.4 0.00 0.00 0.00 69 1002.2
20260505204205 61 139 3.5 10.4 0.00 0.00 0.00 69 1002.0
20260505203704 61 100 4.3 10.4 0.00 0.00 0.00 69 1001.9
20260505201705 62 102 4.3 10.4 0.00 0.00 0.00 69 1001.7
20260505201204 62 83 5.2 10.4 0.00 0.00 0.00 69 1001.8
20260505200706 62 85 2.6 10.4 0.00 0.00 0.00 68 1001.7
20260505200204 62 99 4.3 10.4 0.00 0.00 0.00 68 1001.7
20260505195705 63 108 4.3 10.4 0.00 0.00 0.00 67 1001.8
20260505194203 63 113 7.0 11.3 0.00 0.00 0.00 67 1001.6
20260505193204 63 109 1.7 8.7 0.00 0.00 0.00 67 1001.7
20260505192704 63 106 4.3 8.7 0.00 0.00 0.00 67 1001.6
20260505191704 63 68 3.5 7.8 0.00 0.00 0.00 67 1001.6
20260505191204 64 68 2.6 7.0 0.00 0.00 0.00 67 1001.6
20260505190204 64 64 2.6 7.8 0.00 0.00 0.00 66 1001.7
20260505185704 64 79 2.6 6.1 0.00 0.00 0.00 67 1001.7
20260505185204 63 83 2.6 6.1 0.00 0.00 0.00 71 1001.6
20260505184205 64 45 2.6 6.1 0.00 0.00 0.00 70 1001.7
20260505183205 64 39 2.6 4.3 0.00 0.00 0.00 71 1001.6
20260505182706 63 27 1.7 5.2 0.00 0.00 0.00 71 1001.7
20260505182204 64 30 1.7 6.1 0.00 0.00 0.00 72 1001.7
20260505180704 64 31 2.6 7.8 0.00 0.00 0.00 71 1001.8
20260505174704 65 20 2.6 7.0 0.00 0.00 0.00 69 1001.7
20260505173704 66 9 2.6 7.0 0.00 0.00 0.00 66 1001.8
20260505173204 67 24 2.6 7.0 0.00 0.00 0.00 65 1001.8
20260505171203 68 30 0.9 2.6 0.00 0.00 0.00 61 1001.9
20260505170203 68 46 0.9 1.7 0.00 0.00 0.00 60 1002.0
20260505165704 68 51 0.9 1.7 0.00 0.00 0.00 59 1002.1
20260505165203 69 51 0.9 1.7 0.00 0.00 0.00 59 1002.1
20260505164703 69 51 0.9 1.7 0.00 0.00 0.00 58 1002.2
20260505164204 69 51 0.9 1.7 0.00 0.00 0.00 59 1002.2
20260505163203 70 55 0.9 1.7 0.00 0.00 0.00 55 1002.3
20260505161703 70 115 1.7 2.6 0.00 0.00 0.00 52 1002.4
20260505161203 70 165 1.7 4.3 0.00 0.00 0.00 52 1002.5
20260505153203 71 121 4.3 10.4 0.00 0.00 0.00 52 1002.5
20260505152204 71 154 4.3 7.8 0.00 0.00 0.00 52 1002.5
20260505151703 71 124 4.3 10.4 0.00 0.00 0.00 53 1002.5